Tracking 25620 objects as of 18-May-2022
HD Live streaming from Space Station
objects crossing your sky now

COSMOS 2251 DEB

Track COSMOS 2251 DEB now!
10-day predictions


NORAD ID: 34944
Int'l Code: 1993-036ADX
Perigee: 703.5 km
Apogee: 1,043.4 km
Inclination: 73.8 °
Period: 102.3 minutes
Semi major axis: 7244 km
RCS: 0.0137 m2 (small)
Launch date: June 16, 1993
Source: Commonwealth of Independent States (former USSR) (CIS)
Launch site: PLESETSK MISSILE AND SPACE COMPLEX (PKMTR)

Note: This is SATELLITE DEBRIS
aabbcc
Your satellite tracking list
Your tracking list is empty




NASA's NSSDC Master Catalog

Two Line Element Set (TLE):
1 34944U 93036ADX 22135.50890134  .00001066  00000-0  49884-3 0  9997
2 34944  73.7647  56.1216 0234603 117.3053 245.2184 14.07965393458021
Source of the keplerian elements: AFSPC